Regional Weather Roundup
Issued by NWS

Home | Current Version | Previous Version | Graphics & Text | Print | Product List | Glossary On
Versions: 1 2 3 4 5 6 7 8 9 10 11 12 13 14 15 16 17 18 19 20 21 22 23 24 25 26 27 28 29 30 31 32 33 34 35 36 37 38 39 40 41 42 43 44 45 46 47 48 49 50
000
ASUS45 KCYS 181910
RWRWY

WYOMING REGIONAL WEATHER ROUNDUP
NATIONAL WEATHER SERVICE CHEYENNE WY
1200 PM MST THU DEC 18 2014

NOTE:  "FAIR" INDICATES FEW OR NO CLOUDS BELOW 12,000 FEET
WITH NO SIGNIFICANT WEATHER AND/OR OBSTRUCTIONS TO VISIBILITY.

WYZ001-182000-
YELLOWSTONE NATIONAL PARK

CITY           SKY/WX    TMP DP  RH WIND       PRES   REMARKS
LK YELLOWSTONE   N/A     25  17  72 VRB3      30.06F
W YELLOWSTONE  NOT AVBL

$$
WYZ002>013-054>058-071-098>099-182000-
NORTHERN WYOMING

CITY           SKY/WX    TMP DP  RH WIND       PRES   REMARKS
JACKSON        PTSUNNY   25  21  86 CALM      30.10F
CODY           FAIR      27  12  54 CALM      29.99F
GREYBULL       FAIR      19  14  81 CALM      30.07F
WORLAND        FAIR      12   8  84 SW5       30.07F WCI   4
SHERIDAN       FAIR      35  21  56 S5        29.97F WCI  31
BUFFALO        FAIR      41  16  36 S9        29.98F
GILLETTE       FAIR      37  22  54 SW12      29.98F WCI  29
HULETT           N/A     34  28  80 MISG        N/A
NEWCASTLE      FAIR      32  30  93 CALM      30.03S

$$
WYZ014>020-022>026-101>103-182000-
CENTRAL WYOMING

CITY           SKY/WX    TMP DP  RH WIND       PRES   REMARKS
BIG PINEY      FAIR      28  17  63 VRB3      30.08F
PINEDALE       FAIR      28  18  64 N3        30.08F
DUBOIS         MOCLDY    30  14  51 W22G31    30.01S WCI  17
LANDER         FAIR       8   6  92 CALM      30.05F
RIVERTON       FOG       13  10  88 S3        30.07F VSB 1/2
CASPER         FAIR      28  19  69 SW20      30.04F WCI  15
DOUGLAS        FAIR      38  20  48 W13       30.03F WCI  30

$$
WYZ021-027>030-104>119-182000-
SOUTHERN WYOMING

CITY           SKY/WX    TMP DP  RH WIND       PRES   REMARKS
EVANSTON       PTSUNNY   30  24  78 SW12      30.10F WCI  20
KEMMERER       FAIR      32  23  69 W9        30.09F WCI  24
FORT BRIDGER   FAIR      35  19  51 W8        30.12F WCI  28
ROCK SPRINGS   FAIR      28  20  71 SW10      30.09F WCI  19
DIXON          CLOUDY    25  22  88 CALM      30.16S
RAWLINS        FAIR      27  20  75 SW16      30.08F WCI  15
SARATOGA       FAIR      27  18  69 CALM      30.10F
LARAMIE        FAIR      32  18  56 SW14      30.00F WCI  22
CHEYENNE       FAIR      40  13  33 W16G23    30.01F WCI  31
TORRINGTON     FAIR      23  20  88 CALM      30.03F
PINE BLUFFS    FAIR      41  19  42 W15       30.02F

$$


USA.gov is the U.S. government's official web portal to all federal, state and local government web resources and services.